eduzones.com alexa rank chart, eduzones.com alexa rank daily changes

eduzones.com alexa rank chart, eduzones.com alexa rank daily changes

eduzones.com
Actual rank:
73 359

RANK HISTORY

Date Rank Diff
2017/10/22 73 359 +655
2017/10/21 72 704 +354
2017/10/20 72 350 +575
2017/10/19 71 775 +1 206
2017/10/18 70 569 +1 490
2017/10/17 69 079 +681
2017/10/16 68 398 +2 490
2017/10/14 65 908 +1 625
2017/10/13 64 283 +997
2017/10/12 63 286 +421
2017/10/11 62 865 +632
2017/10/10 62 233 -482
2017/10/09 62 715 +346
2017/10/08 62 369 +275
2017/10/07 62 094 +249
2017/10/06 61 845 +737
2017/10/05 61 108 -586
2017/10/04 61 694 -230
2017/10/03 61 924 -75
2017/10/02 61 999 -51
2017/10/01 62 050 +175
2017/09/30 61 875 +244
2017/09/29 61 631 +531
2017/09/28 61 100 -98
2017/09/27 61 198 -808
2017/09/26 62 006 -408
2017/09/25 62 414 -892
2017/09/24 63 306 -86
2017/09/23 63 392 -447
2017/09/22 63 839 -328
2017/09/20 64 167 -606
2017/09/19 64 773 -1 139
2017/09/18 65 912 -779
2017/09/17 66 691 +191
2017/09/16 66 500 -1 351
2017/09/15 67 851 -343
2017/09/14 68 194 -1 889
2017/09/13 70 083 -1 228
2017/09/12 71 311 -1 617
2017/09/11 72 928 -961
2017/09/10 73 889 +126
2017/09/09 73 763 -1 234
2017/09/08 74 997 -300
2017/09/07 75 297 -847
2017/09/06 76 144 -1 878
2017/09/05 78 022 -606
2017/09/04 78 628 +21
2017/09/03 78 607 -1 221
2017/09/02 79 828 -1 103
2017/09/01 80 931 -262
2017/08/31 81 193 -1 318
2017/08/30 82 511 -393
2017/08/29 82 904 -2 263
2017/08/28 85 167 +764
2017/08/27 84 403 +2 225
2017/08/26 82 178 +653
2017/08/25 81 525 -34
2017/08/24 81 559 -497
2017/08/23 82 056

WIDGET FOR YOUR SITE

DOMAINS WITH THE NEAREST RANK

Domain Rank
soccerbase.com 73 354
tareasplus.com 73 355
mlmleadsystempro.com 73 356
wideworldpapers.com 73 357
meloman.kz 73 358
eduzones.com 73 359
miner8.com 73 360
iwc.com 73 361
lawyersgunsmoneyblog.com 73 362
mitel.com 73 363
facemark.jp 73 364

DOMAINS WITH THE NEAREST RANK BY TLD .com

Domain Rank
jianfouart.com 73 352
soccerbase.com 73 354
tareasplus.com 73 355
mlmleadsystempro.com 73 356
wideworldpapers.com 73 357
eduzones.com 73 359
miner8.com 73 360
iwc.com 73 361
lawyersgunsmoneyblog.com 73 362
mitel.com 73 363
pornoreino.com 73 366